Location: ASU Dark Sky Observatory
(36.2504°N, 81.4125°W)
Time: 13:27:25
(UTC-05:00)

Amateur Radio Satellites - All Passes

Search period start: 26 January 2015 12:57
Search period end: 27 January 2015 12:57
Location: ASU Dark Sky Observatory, 36.2504°N, 81.4125°W

Satellite Date Start Highest point End Downlink Frequencies (MHz)
Time Altitude Azimuth
Gurwin Techsat 1B 26 Jan 13:00:20 13:03:16 16° 65° (ENE) 13:06:28 435.225
SWISSCUBE 26 Jan 13:17:40 13:21:49 30° 96° (E) 13:26:02 437.505
VERMONT LUNAR 26 Jan 13:20:59 13:24:22 43° 7° (N) 13:27:46 437.305
AIST 2 26 Jan 13:24:59 13:29:16 74° 242° (WSW) 13:33:27 435.215
BEESAT 26 Jan 13:33:53 13:38:23 41° 98° (E) 13:42:54 436.000
ITUPSAT 1 26 Jan 13:35:39 13:40:11 42° 98° (E) 13:44:44 437.325
SPROUT 26 Jan 13:35:51 13:39:22 23° 290° (WNW) 13:42:44 437.525
GONETS M04 26 Jan 13:39:21 13:48:01 74° 266° (W) 13:56:39
PCSat 26 Jan 13:45:58 13:50:23 25° 52° (NE) 13:54:52 145.827
BEESAT 2 26 Jan 13:47:39 13:50:18 16° 250° (WSW) 13:52:47 435.950
Oscar 19 26 Jan 13:51:04 13:55:55 38° 263° (W) 14:00:43 437.125/150
HORYU 2 26 Jan 13:56:46 13:59:11 15° 67° (ENE) 14:01:48 437.375
ITAMSAT 1 26 Jan 13:59:24 14:04:34 88° 83° (E) 14:09:48 435.822/435.867
PHONESAT 2.4 26 Jan 14:00:37 14:04:09 45° 8° (N) 14:07:41 2401.200-2431.200
DANDE 26 Jan 14:34:39 14:37:09 12° 56° (NE) 14:39:50 436.750
AO-7 26 Jan 14:37:16 14:44:27 35° 63° (ENE) 14:51:49 29.400- 29.500
Gurwin Techsat 1B 26 Jan 14:37:34 14:42:48 61° 259° (W) 14:48:04 435.225
KKS-1 26 Jan 14:47:02 14:51:23 48° 99° (E) 14:55:44 437.445
STARS 26 Jan 14:48:12 14:52:09 31° 96° (E) 14:56:07 437.465
SWISSCUBE 26 Jan 14:55:41 14:59:36 25° 290° (WNW) 15:03:26 437.505
VERMONT LUNAR 26 Jan 14:59:08 15:02:39 73° 205° (SSW) 15:06:11 437.305
JAS-2 26 Jan 15:01:54 15:04:08 13° 65° (ENE) 15:06:37 435.910
RS-15 26 Jan 15:06:41 15:18:10 87° 60° (ENE) 15:30:11 29.354- 29.394
AUBIESAT-1 26 Jan 15:06:45 15:08:37 15° 99° (E) 15:10:39 437.475
BEESAT 26 Jan 15:12:38 15:15:59 19° 292° (WNW) 15:19:10 436.000
ITUPSAT 1 26 Jan 15:14:29 15:17:49 18° 293° (WNW) 15:20:59 437.325
CUSAT 1 26 Jan 15:18:42 15:24:26 33° 69° (ENE) 15:28:57 437.405
PCSat 26 Jan 15:28:53 15:33:59 42° 249° (WSW) 15:39:01 145.827
HORYU 2 26 Jan 15:31:10 15:35:31 47° 260° (W) 15:39:53 437.375
PHONESAT 2.4 26 Jan 15:39:13 15:42:51 66° 205° (SSW) 15:46:30 2401.200-2431.200
GONETS M04 26 Jan 15:41:13 15:43:36 11° 282° (WNW) 15:45:10
O/OREOS (USA 219) 26 Jan 15:52:41 15:54:49 14° 100° (E) 15:57:11 437.305
M-CUBED/EXP-1 PRIME 26 Jan 16:04:32 16:07:50 66° 289° (WNW) 16:11:11 437.505
MOZHAYETS 4 26 Jan 16:05:30 16:07:00 12° 89° (E) 16:08:48
DANDE 26 Jan 16:15:19 16:22:18 88° 268° (W) 16:27:25 436.750
STARS 26 Jan 16:25:06 16:28:28 21° 291° (WNW) 16:31:43 437.465
KKS-1 26 Jan 16:25:09 16:27:41 15° 293° (WNW) 16:30:01 437.445
AO-7 26 Jan 16:28:56 16:37:01 50° 259° (W) 16:45:04 29.400- 29.500
VERMONT LUNAR 26 Jan 16:38:27 16:40:26 14° 216° (SW) 16:42:20 437.305
AUBIESAT-1 26 Jan 16:40:56 16:43:38 23° 292° (WNW) 16:46:20 437.475
JAS-2 26 Jan 16:43:09 16:48:54 70° 258° (WSW) 16:54:12 435.910
CUSAT 1 26 Jan 17:02:07 17:07:15 26° 275° (W) 17:11:14 437.405
Cubesat XI-IV 26 Jan 17:18:18 17:23:04 35° 70° (ENE) 17:27:55 437.490
PHONESAT 2.4 26 Jan 17:19:14 17:21:03 13° 217° (SW) 17:22:46 2401.200-2431.200
RS-15 26 Jan 17:21:18 17:29:35 22° 256° (WSW) 17:37:19 29.354- 29.394
O/OREOS (USA 219) 26 Jan 17:29:33 17:33:52 46° 294° (WNW) 17:38:13 437.305
CUTE-I 26 Jan 17:38:46 17:43:54 55° 73° (ENE) 17:49:08 437.470
MOZHAYETS 4 26 Jan 17:40:12 17:44:41 55° 285° (WNW) 17:49:08
CUBESAT XI-V 26 Jan 17:49:25 17:50:39 11° 89° (E) 17:52:14 437.345
STRAND 1 26 Jan 18:18:38 18:22:00 18° 92° (E) 18:25:34 437.568
YUBILEINY 26 Jan 18:41:55 18:47:06 19° 82° (E) 18:52:50 435.215
JUGNU 26 Jan 18:50:27 18:53:05 13° 171° (S) 18:55:47 437.505
SO-50 26 Jan 18:53:57 18:55:58 13° 41° (NE) 18:58:13 436.795
Cubesat XI-IV 26 Jan 18:58:53 19:03:16 25° 266° (W) 19:07:33 437.490
PRISM 26 Jan 19:06:09 19:10:14 61° 285° (WNW) 19:14:19 437.425
BRITE-PL 26 Jan 19:11:57 19:14:56 17° 65° (ENE) 19:18:14 437.365/2234.400
CANX-2 26 Jan 19:17:14 19:18:23 11° 67° (ENE) 19:19:46 2200.000
CUTE-I 26 Jan 19:21:08 19:24:25 16° 269° (W) 19:27:28 437.470
GOMX 1 26 Jan 19:22:56 19:25:36 15° 65° (ENE) 19:28:35 467.674
CUBESAT XI-V 26 Jan 19:23:58 19:28:36 62° 285° (WNW) 19:33:14 437.345
CUTE 1.7 + AOD 2 26 Jan 19:39:54 19:42:52 19° 70° (ENE) 19:45:56 437.475
AAUSAT CUBESAT 2 26 Jan 19:40:33 19:41:39 11° 67° (ENE) 19:43:00 437.432
HO-68 26 Jan 19:40:54 19:47:23 40° 67° (ENE) 19:53:58 435.675
DOVE 4 26 Jan 19:48:16 19:51:40 19° 67° (ENE) 19:55:22 437.250
STRAND 1 26 Jan 19:56:34 20:01:30 46° 288° (WNW) 20:06:23 437.568
CINEMA 3 26 Jan 19:58:23 20:00:38 14° 65° (ENE) 20:03:10 145.822/145.860
SEEDS 26 Jan 20:13:36 20:17:33 38° 73° (ENE) 20:21:32 437.485
DX 1 26 Jan 20:23:57 20:24:52 11° 65° (ENE) 20:26:03 434.975-435.025
SO-50 26 Jan 20:32:22 20:37:20 88° 66° (ENE) 20:42:14 436.795
YUBILEINY 26 Jan 20:34:24 20:43:05 78° 278° (W) 20:51:49 435.215
JUGNU 26 Jan 20:37:51 20:41:21 16° 181° (S) 20:44:52 437.505
UWE-3 26 Jan 20:39:05 20:41:58 17° 68° (ENE) 20:45:04 435.000/436.395/437.385
COMPASS 1 26 Jan 20:44:05 20:48:19 75° 77° (ENE) 20:52:33 437.405
BRITE-PL 26 Jan 20:48:11 20:52:55 54° 261° (W) 20:58:06 437.365/2234.400
CANX-2 26 Jan 20:49:39 20:53:54 58° 260° (W) 20:58:09 2200.000
GOMX 1 26 Jan 20:58:19 21:03:10 61° 261° (W) 21:08:22 467.674
VELOX 1 26 Jan 21:04:17 21:05:15 11° 65° (ENE) 21:06:29 145.980
Oscar 11 26 Jan 21:05:18 21:09:33 53° 75° (ENE) 21:13:48 145.826/435.025
SRMSAT 26 Jan 21:12:43 21:16:02 15° 175° (S) 21:19:23 437.500
AAUSAT CUBESAT 2 26 Jan 21:12:46 21:16:55 56° 260° (W) 21:21:03 437.432
CUTE 1.7 + AOD 2 26 Jan 21:14:43 21:18:36 32° 264° (W) 21:22:28 437.475
DOVE 4 26 Jan 21:24:22 21:29:05 45° 263° (W) 21:34:02 437.250
DELFI C3 26 Jan 21:24:24 21:28:29 73° 77° (ENE) 21:32:34 145.870
CUBEBUG 2 26 Jan 21:27:18 21:31:57 67° 76° (ENE) 21:36:44 437.445
HO-68 26 Jan 21:28:41 21:35:09 35° 263° (W) 21:41:32 435.675
ISS 26 Jan 21:31:47 21:32:10 10° 128° (SE) 21:32:42 145.825
CINEMA 3 26 Jan 21:32:30 21:37:18 64° 259° (W) 21:42:18 145.822/145.860
UKube-1 26 Jan 21:38:58 21:43:16 78° 76° (ENE) 21:47:37 .
ZACube-1 26 Jan 21:47:38 21:52:13 78° 75° (ENE) 21:56:51 437.345
SEEDS 26 Jan 21:50:59 21:53:35 15° 269° (W) 21:56:00 437.485
DX 1 26 Jan 21:56:22 22:00:40 62° 259° (W) 22:04:59 434.975-435.025
FUNcube-1 26 Jan 22:00:36 22:05:10 76° 258° (WSW) 22:09:48 145.935
ESTCUBE 1 26 Jan 22:02:06 22:05:23 21° 69° (ENE) 22:08:48 437.505/2401.250
AISAT 26 Jan 22:07:11 22:11:32 59° 75° (ENE) 22:15:56 437.250
ANTELSAT 26 Jan 22:07:13 22:10:02 17° 92° (E) 22:12:57 437.575/2403.000
HUMSAT D 26 Jan 22:13:09 22:17:30 83° 77° (ENE) 22:21:52 437.325/437.525
UWE-3 26 Jan 22:13:45 22:18:12 44° 262° (W) 22:22:42 435.000/436.395/437.385
50 SAT 26 Jan 22:15:46 22:19:51 65° 76° (ENE) 22:23:58 437.505
TIGRISAT 26 Jan 22:16:18 22:19:38 21° 93° (E) 22:23:00 435.000
AIST 1 26 Jan 22:19:24 22:22:31 19° 74° (ENE) 22:25:45
POPSAT HIP 1 26 Jan 22:22:35 22:24:48 14° 91° (E) 22:27:13 437.405
DUCHIFAT 1 26 Jan 22:26:41 22:29:13 16° 92° (E) 22:31:55 145.980
JUGNU 26 Jan 22:27:15 22:29:37 12° 191° (S) 22:31:55 437.505
VELOX 1 26 Jan 22:36:59 22:41:22 64° 259° (W) 22:45:47 145.980
YUBILEINY 26 Jan 22:37:36 22:41:42 13° 300° (WNW) 22:45:07 435.215
Oscar 11 26 Jan 22:44:38 22:46:08 11° 271° (W) 22:47:21 145.826/435.025
SPROUT 26 Jan 22:52:38 22:55:07 16° 68° (ENE) 22:57:48 437.525
CUBEBUG 1 26 Jan 22:54:02 22:58:20 75° 76° (ENE) 23:02:42 437.445
NANOSAT C BR1 26 Jan 22:59:25 23:03:27 38° 98° (E) 23:07:29 145.865
SRMSAT 26 Jan 23:01:11 23:04:28 15° 185° (S) 23:07:42 437.500
ISS 26 Jan 23:05:04 23:08:19 63° 320° (NW) 23:11:35 145.825
UNISAT 6 26 Jan 23:06:51 23:11:21 85° 102° (ESE) 23:15:42 437.425
CUBEBUG 2 26 Jan 23:08:01 23:09:14 11° 272° (W) 23:10:06 437.445
QB50P2 26 Jan 23:11:56 23:16:11 57° 100° (E) 23:20:24 145.880/145.840
QB50P1 26 Jan 23:22:14 23:26:34 75° 102° (ESE) 23:30:51 145.935-145.965
POLYITAN 1 26 Jan 23:35:06 23:39:27 76° 283° (WNW) 23:43:44 437.675
TISAT 1 26 Jan 23:37:40 23:41:45 51° 74° (ENE) 23:45:54 437.305
ESTCUBE 1 26 Jan 23:38:06 23:42:07 31° 263° (W) 23:46:06 437.505/2401.250
ANTELSAT 26 Jan 23:42:55 23:47:04 36° 287° (WNW) 23:51:02 437.575/2403.000
AISAT 26 Jan 23:47:30 23:48:39 11° 271° (W) 23:49:28 437.250
BUGSAT 1 26 Jan 23:48:44 23:53:00 69° 284° (WNW) 23:57:15 437.445
TIGRISAT 26 Jan 23:52:33 23:56:27 30° 289° (WNW) 00:00:13 435.000
AIST 1 26 Jan 23:56:28 00:00:14 29° 269° (W) 00:03:58
POPSAT HIP 1 26 Jan 23:56:52 00:00:59 42° 287° (WNW) 00:05:01 437.405
DUCHIFAT 1 27 Jan 00:01:16 00:05:16 38° 287° (WNW) 00:09:13 145.980
SWISSCUBE 27 Jan 00:22:11 00:26:04 26° 70° (ENE) 00:30:03 437.505
SPROUT 27 Jan 00:26:52 00:30:56 40° 262° (W) 00:35:00 437.525
NANOSAT C BR1 27 Jan 00:36:19 00:39:03 16° 292° (WNW) 00:41:37 145.865
BEESAT 27 Jan 00:38:05 00:42:22 35° 72° (ENE) 00:46:43 436.000
ITUPSAT 1 27 Jan 00:40:11 00:44:30 36° 71° (ENE) 00:48:52 437.325
GONETS M04 27 Jan 00:42:20 00:49:00 26° 85° (E) 00:55:58
ISS 27 Jan 00:44:13 00:45:25 11° 339° (NNW) 00:46:33 145.825
QB50P2 27 Jan 00:50:08 00:51:41 11° 294° (WNW) 00:53:00 145.880/145.840
TISAT 1 27 Jan 01:16:34 01:17:58 11° 270° (W) 01:19:07 437.305
KKS-1 27 Jan 01:42:59 01:46:55 32° 71° (ENE) 01:50:56 437.445
STARS 27 Jan 01:43:25 01:46:41 21° 69° (ENE) 01:50:06 437.465
AUBIESAT-1 27 Jan 01:53:10 01:55:52 18° 67° (ENE) 01:58:33 437.475
SWISSCUBE 27 Jan 01:59:46 02:03:53 28° 264° (W) 02:07:56 437.505
BEESAT 2 27 Jan 02:02:40 02:04:45 14° 110° (ESE) 02:07:02 435.950
O/OREOS (USA 219) 27 Jan 02:03:35 02:06:49 19° 58° (ENE) 02:10:11 437.305
Oscar 19 27 Jan 02:04:54 02:10:05 87° 284° (WNW) 02:15:13 437.125/150
ITAMSAT 1 27 Jan 02:15:09 02:20:01 39° 98° (E) 02:24:54 435.822/435.867
BEESAT 27 Jan 02:16:44 02:20:21 21° 267° (W) 02:23:50 436.000
BEESAT 3 27 Jan 02:18:13 02:21:31 25° 112° (ESE) 02:24:56 437.485
ITUPSAT 1 27 Jan 02:19:00 02:22:33 20° 267° (W) 02:25:57 437.325
GONETS M04 27 Jan 02:36:41 02:45:21 59° 281° (WNW) 02:53:56
M-CUBED/EXP-1 PRIME 27 Jan 02:50:55 02:55:10 79° 252° (WSW) 02:59:05 437.505
Gurwin Techsat 1B 27 Jan 02:56:23 03:01:41 68° 101° (E) 03:06:58 435.225
STARS 27 Jan 03:19:04 03:23:01 31° 264° (W) 03:26:58 437.465
KKS-1 27 Jan 03:20:16 03:23:39 20° 266° (W) 03:26:56 437.445
AIST 2 27 Jan 03:20:43 03:24:43 44° 115° (ESE) 03:28:50 435.215
RS-15 27 Jan 03:22:35 03:26:26 13° 101° (E) 03:31:23 29.354- 29.394
HORYU 2 27 Jan 03:25:21 03:29:31 39° 98° (E) 03:33:40 437.375
AUBIESAT-1 27 Jan 03:26:53 03:30:40 31° 257° (WSW) 03:34:09 437.475
BEESAT 2 27 Jan 03:38:41 03:42:38 44° 304° (NW) 03:46:38 435.950
DANDE 27 Jan 03:39:43 03:45:34 24° 84° (E) 03:52:12 436.750
O/OREOS (USA 219) 27 Jan 03:42:09 03:46:25 37° 255° (WSW) 03:50:38 437.305
ITAMSAT 1 27 Jan 03:55:13 03:59:19 23° 292° (WNW) 04:03:17 435.822/435.867
JAS-2 27 Jan 03:55:16 03:58:25 15° 92° (E) 04:02:07 435.910
BEESAT 3 27 Jan 03:56:06 03:59:36 26° 308° (NW) 04:03:06 437.485
CUSAT 1 27 Jan 04:20:25 04:28:00 56° 93° (E) 04:36:17 437.405
PCSat 27 Jan 04:24:47 04:29:39 36° 110° (ESE) 04:34:38 145.827
AO-7 27 Jan 04:33:06 04:41:24 68° 104° (ESE) 04:49:40 29.400- 29.500
Gurwin Techsat 1B 27 Jan 04:38:19 04:41:10 14° 296° (WNW) 04:43:43 435.225
MOZHAYETS 4 27 Jan 04:39:16 04:43:53 82° 258° (WSW) 04:48:30
AIST 2 27 Jan 05:00:39 05:03:37 17° 312° (NW) 05:06:28 435.215
HORYU 2 27 Jan 05:02:58 05:05:55 17° 292° (WNW) 05:08:41 437.375
DANDE 27 Jan 05:20:29 05:28:18 70° 281° (WNW) 05:37:02 436.750
RS-15 27 Jan 05:26:26 05:37:18 76° 116° (ESE) 05:48:15 29.354- 29.394
STRAND 1 27 Jan 05:32:14 05:35:52 21° 67° (ENE) 05:39:40 437.568
ISS 27 Jan 05:35:11 05:38:23 45° 37° (NE) 05:41:34 145.825
JAS-2 27 Jan 05:38:20 05:43:55 65° 285° (WNW) 05:50:11 435.910
Cubesat XI-IV 27 Jan 05:39:06 05:42:30 18° 91° (E) 05:46:09 437.490
PRISM 27 Jan 05:54:00 05:58:05 67° 76° (ENE) 06:02:10 437.425
CUTE-I 27 Jan 05:59:01 06:03:30 27° 95° (E) 06:08:05 437.470
CUSAT 1 27 Jan 06:04:25 06:11:30 32° 291° (WNW) 06:18:46 437.405
PCSat 27 Jan 06:08:29 06:13:10 28° 307° (NW) 06:17:47 145.827
CUBESAT XI-V 27 Jan 06:24:38 06:29:14 86° 253° (WSW) 06:33:53 437.345
AO-7 27 Jan 06:27:02 06:33:37 26° 301° (WNW) 06:39:54 29.400- 29.500
YUBILEINY 27 Jan 06:47:57 06:56:17 47° 76° (ENE) 07:04:43 435.215
DANDE 27 Jan 07:09:15 07:13:38 14° 302° (WNW) 07:17:32 436.750
STRAND 1 27 Jan 07:10:00 07:14:49 41° 262° (W) 07:19:38 437.568
ISS 27 Jan 07:12:40 07:14:39 15° 231° (SW) 07:16:33 145.825
Cubesat XI-IV 27 Jan 07:17:45 07:22:58 51° 288° (WNW) 07:28:09 437.490
CUTE-I 27 Jan 07:38:49 07:43:37 33° 290° (WNW) 07:48:21 437.470
RS-15 27 Jan 07:41:21 07:50:51 32° 320° (NW) 08:00:15 29.354- 29.394
COMPASS 1 27 Jan 08:32:11 08:34:24 14° 91° (E) 08:36:47 437.405
CANX-2 27 Jan 08:38:15 08:41:52 28° 96° (E) 08:45:32 2200.000
YUBILEINY 27 Jan 08:45:13 08:52:54 34° 273° (W) 09:00:24 435.215
BRITE-PL 27 Jan 08:55:32 09:01:12 66° 100° (E) 09:06:38 437.365/2234.400
Oscar 11 27 Jan 08:57:38 08:59:02 12° 90° (E) 09:00:43 145.826/435.025
HO-68 27 Jan 08:58:18 09:05:14 52° 100° (E) 09:12:12 435.675
AAUSAT CUBESAT 2 27 Jan 08:59:17 09:02:47 26° 95° (E) 09:06:19 437.432
CUTE 1.7 + AOD 2 27 Jan 09:02:24 09:06:31 50° 99° (E) 09:10:37 437.475
GOMX 1 27 Jan 09:03:07 09:08:27 54° 98° (E) 09:13:32 467.674
ANTELSAT 27 Jan 09:04:49 09:06:55 13° 66° (ENE) 09:09:16 437.575/2403.000
DELFI C3 27 Jan 09:09:26 09:10:57 12° 90° (E) 09:12:41 145.870
TIGRISAT 27 Jan 09:13:15 09:16:01 16° 67° (ENE) 09:18:58 435.000
VERMONT LUNAR 27 Jan 09:22:11 09:25:30 43° 152° (SSE) 09:28:51 437.305
CUBEBUG 2 27 Jan 09:22:54 09:25:49 17° 91° (E) 09:28:51 437.445
DOVE 4 27 Jan 09:26:23 09:31:36 66° 100° (E) 09:36:32 437.250
UKube-1 27 Jan 09:30:42 09:33:19 16° 92° (E) 09:36:06 .
CINEMA 3 27 Jan 09:30:53 09:35:25 39° 97° (E) 09:39:47 145.822/145.860
SEEDS 27 Jan 09:36:17 09:40:30 73° 282° (WNW) 09:44:38 437.485
ZACube-1 27 Jan 09:40:34 09:43:34 18° 92° (E) 09:46:39 437.345
DX 1 27 Jan 09:47:52 09:51:34 27° 96° (E) 09:55:19 434.975-435.025
NANOSAT C BR1 27 Jan 09:50:23 09:53:35 22° 70° (ENE) 09:56:55 145.865
FUNcube-1 27 Jan 09:52:52 09:56:28 25° 94° (E) 10:00:04 145.935
50 SAT 27 Jan 10:00:59 10:01:31 10° 89° (E) 10:02:20 437.505
HUMSAT D 27 Jan 10:01:48 10:04:24 16° 92° (E) 10:07:08 437.325/437.525
AISAT 27 Jan 10:02:31 10:04:50 14° 91° (E) 10:07:22 437.250
QB50P2 27 Jan 10:02:46 10:06:30 30° 72° (ENE) 10:10:19 145.880/145.840
UNISAT 6 27 Jan 10:02:52 10:07:28 55° 74° (ENE) 10:12:06 437.425
RS-15 27 Jan 10:03:26 10:08:26 13° 354° (N) 10:13:21 29.354- 29.394
COMPASS 1 27 Jan 10:06:28 10:10:20 38° 287° (WNW) 10:14:10 437.405
UWE-3 27 Jan 10:06:47 10:11:07 45° 98° (E) 10:15:19 435.000/436.395/437.385
PHONESAT 2.4 27 Jan 10:07:13 10:10:45 53° 154° (SSE) 10:14:18 2401.200-2431.200
QB50P1 27 Jan 10:12:41 10:16:38 39° 73° (ENE) 10:20:39 145.935-145.965
CANX-2 27 Jan 10:14:29 10:17:42 21° 290° (WNW) 10:20:47 2200.000
POLYITAN 1 27 Jan 10:25:36 10:29:48 57° 75° (ENE) 10:34:04 437.675
VELOX 1 27 Jan 10:30:45 10:34:39 29° 96° (E) 10:38:35 145.980
Oscar 11 27 Jan 10:31:25 10:35:37 50° 285° (WNW) 10:39:45 145.826/435.025
AAUSAT CUBESAT 2 27 Jan 10:35:10 10:38:20 21° 290° (WNW) 10:41:23 437.432
BRITE-PL 27 Jan 10:35:38 10:39:08 16° 295° (WNW) 10:42:21 437.365/2234.400
BUGSAT 1 27 Jan 10:36:22 10:40:20 56° 75° (ENE) 10:44:24 437.445
ANTELSAT 27 Jan 10:38:37 10:43:17 59° 260° (W) 10:47:58 437.575/2403.000
CUTE 1.7 + AOD 2 27 Jan 10:40:16 10:42:04 12° 293° (WNW) 10:43:40 437.475
GOMX 1 27 Jan 10:42:26 10:46:07 18° 294° (WNW) 10:49:31 467.674
DELFI C3 27 Jan 10:42:39 10:46:29 42° 286° (WNW) 10:50:17 145.870
SO-50 27 Jan 10:44:31 10:48:54 52° 116° (ESE) 10:53:28 436.795
HO-68 27 Jan 10:46:44 10:52:38 28° 296° (WNW) 10:58:21 435.675
POPSAT HIP 1 27 Jan 10:46:50 10:51:06 80° 258° (WSW) 10:55:25 437.405
CUBEBUG 1 27 Jan 10:46:50 10:49:43 17° 92° (E) 10:52:45 437.445
TIGRISAT 27 Jan 10:47:52 10:52:26 48° 261° (W) 10:57:00 435.000
AIST 1 27 Jan 10:47:56 10:49:41 13° 87° (E) 10:51:39
DUCHIFAT 1 27 Jan 10:50:52 10:55:07 72° 258° (WSW) 10:59:24 145.980
CUBEBUG 2 27 Jan 10:58:29 11:02:45 37° 287° (WNW) 11:06:50 437.445
VERMONT LUNAR 27 Jan 11:00:11 11:03:38 52° 348° (NNW) 11:07:05 437.305
UKube-1 27 Jan 11:05:37 11:09:41 38° 288° (WNW) 11:13:42 .
DOVE 4 27 Jan 11:06:03 11:08:47 14° 295° (WNW) 11:11:12 437.250
CINEMA 3 27 Jan 11:08:50 11:12:20 20° 292° (WNW) 11:15:36 145.822/145.860
ZACube-1 27 Jan 11:16:04 11:20:06 33° 288° (WNW) 11:23:59 437.345
DX 1 27 Jan 11:24:11 11:27:45 24° 290° (WNW) 11:31:11 434.975-435.025
NANOSAT C BR1 27 Jan 11:25:40 11:29:21 27° 264° (W) 11:33:00 145.865
TISAT 1 27 Jan 11:28:39 11:28:45 10° 89° (E) 11:29:11 437.305
FUNcube-1 27 Jan 11:29:07 11:32:47 25° 290° (WNW) 11:36:16 145.935
ESTCUBE 1 27 Jan 11:32:55 11:37:26 64° 101° (ESE) 11:41:56 437.505/2401.250
50 SAT 27 Jan 11:33:06 11:37:03 49° 285° (WNW) 11:40:55 437.505
HUMSAT D 27 Jan 11:36:29 11:40:22 34° 288° (WNW) 11:44:09 437.325/437.525
AISAT 27 Jan 11:37:26 11:41:46 46° 287° (WNW) 11:46:03 437.250
QB50P2 27 Jan 11:39:21 11:42:31 19° 267° (W) 11:45:33 145.880/145.840
UNISAT 6 27 Jan 11:42:24 11:44:40 13° 270° (W) 11:46:40 437.425
Oscar 19 27 Jan 11:43:48 11:45:25 12° 64° (ENE) 11:47:21 437.125/150
UWE-3 27 Jan 11:44:40 11:47:17 15° 293° (WNW) 11:49:41 435.000/436.395/437.385
PHONESAT 2.4 27 Jan 11:45:51 11:49:23 49° 349° (N) 11:52:56 2401.200-2431.200
AIST 2 27 Jan 11:46:02 11:48:38 16° 47° (NE) 11:51:21 435.215
QB50P1 27 Jan 11:50:13 11:52:45 15° 268° (W) 11:55:08 145.935-145.965
BEESAT 2 27 Jan 12:00:52 12:04:55 48° 57° (ENE) 12:08:56 435.950
POLYITAN 1 27 Jan 12:05:36 12:06:13 10° 271° (W) 12:06:32 437.675
VELOX 1 27 Jan 12:07:33 12:11:07 23° 290° (WNW) 12:14:34 145.980
SPROUT 27 Jan 12:16:11 12:20:18 41° 98° (E) 12:24:25 437.525
BEESAT 3 27 Jan 12:17:13 12:21:23 86° 60° (ENE) 12:25:29 437.485
RS-15 27 Jan 12:18:58 12:26:58 22° 30° (NNE) 12:35:36 29.354- 29.394
CUBEBUG 1 27 Jan 12:22:09 12:26:15 37° 287° (WNW) 12:30:19 437.445
AIST 1 27 Jan 12:22:59 12:27:00 41° 281° (W) 12:31:03
SO-50 27 Jan 12:26:39 12:29:50 18° 315° (NW) 12:32:58 436.795
VERMONT LUNAR 27 Jan 12:38:45 12:42:06 40° 4° (N) 12:45:28 437.305
BEESAT 27 Jan 12:43:36 12:44:36 11° 89° (E) 12:45:57 436.000
ITUPSAT 1 27 Jan 12:45:46 12:47:07 11° 89° (E) 12:48:49 437.325
